Погода в Можайском

Россия / Воронежская область     51°19′06″N   39°39′37″E
темп.,
°C
ветер,
м/с
пор.,
м/с
влажн.,
%
обл.,
%
осадки,
мм/ч
давл.,
гПа
погр.,
м
28 сентября, вт
вт2800:00+9ссз3789100 0.1 1019348
03:00+9с4788100 0.2 1020316
06:00+8с3795100 0.2 1020311
09:00+10св577794 0.4 1022758
12:00+10св5666100 0.1 10231101
15:00+9св5670100 0.1 1025881
18:00+7св5782100 0.0 1027809
21:00+7св5878100 0.1 1029870
29 сентября, ср
ср2900:00+7св4776100 0.0 1030588
03:00+7св477696 0.0 1031501
06:00+3ссв37835 0.0 1032165
09:00+7св57605 0.0 1032562
12:00+11св56435 0.0 10321357
15:00+12св56385 0.0 10311537
18:00+8ссв35493 0.0 103177
21:00+6св35595 0.0 103383
30 сентября, чт
чт3000:00+5св22655 0.0 103322
03:00+4ссв22685 0.0 103317
06:00+3с22725 0.0 103428
09:00+8ссв34560 0.0 1034366
12:00+12св34445 0.0 10331303
15:00+13ссв34419 0.0 10331585
18:00+10св33555 0.0 103326
21:00+7св34645 0.0 103454
1 октября, пт
пт100:00+6всв33695 0.0 103530
03:00+5всв22725 0.0 103513
06:00+5всв22755 0.0 103511
09:00+9св2260100 0.0 1036214
12:00+12всв235081 0.0 1036760
15:00+14всв234540 0.0 10351369
18:00+12всв225565 0.0 103439
21:00+9св22705 0.0 103512
2 октября, сб
сб200:00+7всв22785 0.0 103511
03:00+7св228120 0.0 103510
06:00+8св1276100 0.0 103427
09:00+10св1270100 0.0 1034109
12:00+13всв2360100 0.0 1034534
15:00+13всв2358100 0.0 1033727
18:00+11всв2369100 0.0 103384
21:00+11в247298 0.0 1033106